TimeEDT,TemperatureF,Dew PointF,Humidity,Sea Level PressureIn,VisibilityMPH,Wind Direction,Wind SpeedMPH,Gust SpeedMPH,PrecipitationIn,Events,Conditions,WindDirDegrees,DateUTC
12:54 AM,64.0,60.1,87,29.98,10.0,SW,3.5,-,N/A,,Overcast,220,2013-08-01 04:54:00
1:21 AM,64.4,59.0,83,30.01,10.0,Calm,Calm,-,N/A,,Overcast,0,2013-08-01 05:21:00
1:54 AM,64.0,59.0,84,29.96,10.0,SSW,3.5,-,N/A,,Overcast,200,2013-08-01 05:54:00
2:54 AM,63.0,60.1,90,29.93,9.0,SSE,4.6,-,N/A,,Overcast,150,2013-08-01 06:54:00
3:54 AM,63.0,60.1,90,29.92,10.0,South,4.6,-,N/A,,Overcast,190,2013-08-01 07:54:00
4:25 AM,62.6,60.8,94,29.95,10.0,SSW,5.8,-,N/A,,Overcast,200,2013-08-01 08:25:00
4:54 AM,63.0,60.1,90,29.91,6.0,SW,6.9,-,N/A,,Overcast,220,2013-08-01 08:54:00
5:23 AM,62.6,60.8,94,29.94,5.0,SW,5.8,-,0.00,,Overcast,220,2013-08-01 09:23:00
5:36 AM,62.6,60.8,94,29.94,6.0,SW,4.6,-,0.00,,Overcast,220,2013-08-01 09:36:00
5:54 AM,62.1,60.1,93,29.91,7.0,SW,8.1,-,0.00,,Overcast,230,2013-08-01 09:54:00
6:41 AM,62.6,60.8,94,29.94,8.0,SW,5.8,-,N/A,,Overcast,220,2013-08-01 10:41:00
6:54 AM,62.1,60.1,93,29.91,8.0,SSW,5.8,-,N/A,,Overcast,200,2013-08-01 10:54:00
7:31 AM,62.6,60.8,94,29.95,2.0,SW,5.8,-,0.00,Rain,Light Rain,230,2013-08-01 11:31:00
7:42 AM,62.6,60.8,94,29.95,1.8,WSW,6.9,-,0.00,Rain,Light Rain,240,2013-08-01 11:42:00
7:54 AM,62.1,61.0,96,29.92,1.5,SW,4.6,-,0.01,Rain,Light Rain,230,2013-08-01 11:54:00
8:12 AM,62.6,60.8,94,29.95,2.5,SW,6.9,-,0.00,Rain,Light Rain,230,2013-08-01 12:12:00
8:23 AM,62.6,60.8,94,29.95,3.0,SW,6.9,-,0.00,Rain,Light Rain,230,2013-08-01 12:23:00
8:54 AM,63.0,61.0,93,29.92,2.0,SW,6.9,-,0.00,Rain,Light Rain,220,2013-08-01 12:54:00
9:31 AM,62.6,60.8,94,29.95,2.0,SW,6.9,-,0.01,Rain,Light Rain,230,2013-08-01 13:31:00
9:51 AM,62.6,62.6,100,29.94,2.0,WSW,6.9,-,0.01,Rain,Light Rain,250,2013-08-01 13:51:00
9:54 AM,63.0,62.1,97,29.91,2.0,WSW,6.9,-,0.01,Rain,Light Rain,250,2013-08-01 13:54:00
10:03 AM,62.6,62.6,100,29.94,1.0,West,6.9,-,0.00,Rain,Light Rain,260,2013-08-01 14:03:00
10:22 AM,62.6,62.6,100,29.94,0.8,West,10.4,-,0.00,,Overcast,260,2013-08-01 14:22:00
10:27 AM,62.6,62.6,100,29.94,2.5,WSW,9.2,-,0.00,,Overcast,240,2013-08-01 14:27:00
10:35 AM,62.6,62.6,100,29.94,4.0,West,10.4,-,0.00,,Overcast,260,2013-08-01 14:35:00
10:51 AM,64.4,62.6,94,29.94,2.5,West,8.1,-,0.01,Rain,Light Rain,260,2013-08-01 14:51:00
10:54 AM,64.0,62.1,93,29.91,2.5,West,9.2,-,0.01,Rain,Light Rain,270,2013-08-01 14:54:00
10:59 AM,64.4,62.6,94,29.94,5.0,West,8.1,-,0.00,Rain,Light Rain,270,2013-08-01 14:59:00
11:41 AM,64.4,62.6,94,29.94,4.0,West,10.4,-,0.00,Rain,Light Rain,270,2013-08-01 15:41:00
11:54 AM,64.9,63.0,93,29.92,5.0,West,8.1,-,0.00,,Overcast,260,2013-08-01 15:54:00
12:27 PM,66.2,62.6,88,29.95,9.0,West,10.4,-,N/A,,Overcast,270,2013-08-01 16:27:00
12:42 PM,66.2,62.6,88,29.94,10.0,West,8.1,-,N/A,,Overcast,260,2013-08-01 16:42:00
12:46 PM,66.2,62.6,88,29.94,10.0,WNW,10.4,-,N/A,,Overcast,300,2013-08-01 16:46:00
12:54 PM,66.0,61.0,84,29.91,10.0,WNW,10.4,-,N/A,,Overcast,290,2013-08-01 16:54:00
1:54 PM,70.0,61.0,73,29.90,10.0,NW,11.5,-,N/A,,Mostly Cloudy,310,2013-08-01 17:54:00
2:05 PM,71.6,60.8,69,29.93,10.0,WNW,12.7,19.6,N/A,,Scattered Clouds,300,2013-08-01 18:05:00
2:54 PM,72.0,61.0,68,29.90,10.0,West,9.2,-,N/A,,Mostly Cloudy,270,2013-08-01 18:54:00
3:54 PM,73.0,60.1,64,29.89,10.0,WNW,10.4,-,N/A,,Scattered Clouds,290,2013-08-01 19:54:00
4:54 PM,73.0,57.0,57,29.89,10.0,WNW,11.5,-,N/A,,Scattered Clouds,290,2013-08-01 20:54:00
5:54 PM,73.9,55.9,53,29.89,10.0,WNW,12.7,-,N/A,,Clear,290,2013-08-01 21:54:00
6:54 PM,72.0,55.9,57,29.90,10.0,West,9.2,-,N/A,,Clear,280,2013-08-01 22:54:00
7:54 PM,68.0,55.9,65,29.92,10.0,WNW,5.8,-,N/A,,Clear,290,2013-08-01 23:54:00
8:54 PM,66.0,57.0,73,29.92,10.0,WNW,4.6,-,N/A,,Partly Cloudy,290,2013-08-02 00:54:00
9:54 PM,64.9,57.0,75,29.94,10.0,NW,4.6,-,N/A,,Scattered Clouds,310,2013-08-02 01:54:00
10:54 PM,63.0,57.0,81,29.94,10.0,NW,5.8,-,N/A,,Partly Cloudy,320,2013-08-02 02:54:00
11:54 PM,62.1,55.9,80,29.95,10.0,WSW,3.5,-,N/A,,Clear,250,2013-08-02 03:54:00